sat.trackr.live / text

‹ back to catalog

STARLINK-31938

NORAD 59865 · 2024-098H

PAYLOAD ACTIVE UNKNOWN

§ Identity

Operator
Country
US
Launch date
2024-05-24
Launch site
AFETR
Launch vehicle
Mass (kg)
RCS (m²)

Purposes: comms

External: N2YO · Heavens-Above · Gunter

§ Orbital elements

Epoch: 2026-05-25T05:15:51.248160Z

Period
94.27 min
Inclination
43.0027°
Eccentricity
0.0001482
Mean motion
15.27576057 rev/d
Perigee alt
482.0 km
Apogee alt
484.1 km
Semi-major
6,861.2 km
B*
-9.9433e-6
RAAN
205.5115°
Arg perigee
281.7955°
Mean anomaly
78.2730°
Rev number
11,355

§ Raw data

STARLINK-319381 59865U 24098H   26145.21934315 -.00000536  00000+0 -99433-5 0  99902 59865  43.0027 205.5115 0001482 281.7955  78.2730 15.27576057113559

JSON: /api/v1/satellites/59865 · /tle

For live sub-satellite position, see the globe view (requires WebGL).

§ Visibility from observer

Set your observer location to see the next 7 days of passes ≥ 10°. The values pass through the URL so the page stays shareable.

No JS? Fill the form by hand. The geolocation button needs JavaScript.